CHINASAT 1C (ZX 1C) (41103 NORAD) Tracking and Keplerian Element Data

This shows tracking and keplerian element data for the satellite.

Feedback or suggestion? Click here.




ElementValue
Catalog41103
NameCHINASAT 1C (ZX 1C)
Epoch Orbit2837
Epoch Day238.83883175
Epoch Year2023
RAAN80.5869
Inclination4.4798
Eccentricity0.0004427
Argument of Perigee114.398
Mean Anonmoly206.9424
Mean Motion0.99168504
Decay Rate-2.6E-06
L11 41103U 15073A 23238.83883175 -.00000260 00000+0 00000+0 0 9993
L22 41103 4.4798 80.5869 0004427 114.3980 206.9424 0.99168504 28371



Live tracking and technical data element details for CHINASAT 1C (ZX 1C) (NORAD 41103). CHINASAT 1C (ZX 1C) can be tracked NOW for your location showing map with azimuth and elevation plus other details from your city location.







IsCatalogInMostPopularTable: catalog: 41103, numindb: 665
Update: records affected: 1



GetName: 41103 CHINASAT 1C (ZX 1C)

Hit Count: updated at: Sat, 14 Mar 2026 03:15:54 GMT